• în Republica Moldova
  • Lista ţărilor
  • Pe 7 zile
  • Temperatura apei
  • Hartă satelitară
  • Meteo pe hartă
  • Widget-uri
  • user-avatar
    Intrare

    Meteo pe oră la Nikitkino

    Astăzi, 17 August, Vineri

    Timp Temperatura Precipitaţii Vânt Presiune Umiditate
    00:00 +14°C° 0 mm 1 m/s 758 mmHg 90%
    01:00 +14°C° 0 mm 1 m/s 758 mmHg 92%
    02:00 +13°C° 0 mm 1 m/s 758 mmHg 95%
    03:00 +13°C° 0 mm 1 m/s 758 mmHg 95%
    04:00 +13°C° 0 mm 1 m/s 759 mmHg 96%
    05:00 +13°C° 0 mm 1 m/s 759 mmHg 96%
    06:00 +15°C° 0 mm 1 m/s 759 mmHg 90%
    07:00 +18°C° 0 mm 1 m/s 759 mmHg 83%
    08:00 +18°C° 0 mm 2 m/s 759 mmHg 74%
    09:00 +20°C° 0 mm 2 m/s 759 mmHg 69%
    10:00 +21°C° 0 mm 2 m/s 759 mmHg 63%
    11:00 +24°C° 0 mm 2 m/s 759 mmHg 58%
    12:00 +24°C° 0 mm 2 m/s 758 mmHg 56%
    13:00 +25°C° 0 mm 2 m/s 758 mmHg 54%
    14:00 +26°C° 0 mm 2 m/s 758 mmHg 52%
    15:00 +25°C° 0 mm 2 m/s 758 mmHg 55%
    16:00 +25°C° 0 mm 2 m/s 757 mmHg 58%
    17:00 +25°C° 0 mm 2 m/s 757 mmHg 60%
    18:00 +23°C° 0 mm 2 m/s 757 mmHg 66%
    19:00 +20°C° 0 mm 2 m/s 757 mmHg 72%
    20:00 +20°C° 0 mm 1 m/s 757 mmHg 79%
    21:00 +18°C° 0 mm 2 m/s 757 mmHg 81%
    22:00 +17°C° 0 mm 2 m/s 757 mmHg 84%
    23:00 +16°C° 0 mm 2 m/s 757 mmHg 86%

    Mâine, 18 August, Sâmbătă

    Timp Temperatura Precipitaţii Vânt Presiune Umiditate
    00:00 +16°C° 0 mm 2 m/s 757 mmHg 88%
    01:00 +16°C° 0 mm 2 m/s 757 mmHg 91%
    02:00 +15°C° 0 mm 2 m/s 757 mmHg 93%
    03:00 +15°C° 0 mm 2 m/s 757 mmHg 94%
    04:00 +15°C° 0 mm 2 m/s 757 mmHg 96%
    05:00 +15°C° 0 mm 2 m/s 757 mmHg 97%
    06:00 +17°C° 0 mm 2 m/s 757 mmHg 91%
    07:00 +18°C° 0 mm 2 m/s 757 mmHg 85%
    08:00 +20°C° 0 mm 2 m/s 757 mmHg 78%
    09:00 +23°C° 0 mm 2 m/s 757 mmHg 73%
    10:00 +24°C° 0 mm 3 m/s 757 mmHg 68%
    11:00 +26°C° 0 mm 3 m/s 757 mmHg 62%
    12:00 +26°C° 0,2 mm 3 m/s 756 mmHg 63%
    13:00 +26°C° 0,2 mm 3 m/s 756 mmHg 63%
    14:00 +27°C° 0,2 mm 3 m/s 756 mmHg 63%
    15:00 +26°C° 0,3 mm 3 m/s 755 mmHg 68%
    16:00 +26°C° 0,3 mm 3 m/s 755 mmHg 72%
    17:00 +25°C° 0,3 mm 3 m/s 755 mmHg 76%
    18:00 +24°C° 0 mm 2 m/s 755 mmHg 81%
    19:00 +21°C° 0 mm 2 m/s 755 mmHg 87%
    20:00 +20°C° 0 mm 2 m/s 755 mmHg 92%
    21:00 +19°C° 0 mm 2 m/s 755 mmHg 93%
    22:00 +19°C° 0 mm 2 m/s 755 mmHg 95%
    23:00 +18°C° 0 mm 2 m/s 755 mmHg 96%

    Poimâine, 19 August, Duminică

    Timp Temperatura Precipitaţii Vânt Presiune Umiditate
    00:00 +18°C° 0 mm 2 m/s 755 mmHg 96%
    01:00 +18°C° 0 mm 2 m/s 755 mmHg 97%
    02:00 +17°C° 0 mm 2 m/s 755 mmHg 97%
    03:00 +17°C° 0 mm 2 m/s 755 mmHg 97%
    04:00 +17°C° 0 mm 2 m/s 754 mmHg 98%
    05:00 +17°C° 0 mm 2 m/s 754 mmHg 98%
    06:00 +18°C° 0 mm 2 m/s 754 mmHg 94%
    07:00 +19°C° 0 mm 2 m/s 754 mmHg 91%
    08:00 +20°C° 0 mm 2 m/s 754 mmHg 87%
    09:00 +21°C° 0,2 mm 3 m/s 754 mmHg 83%
    10:00 +22°C° 0,2 mm 3 m/s 754 mmHg 78%
    11:00 +24°C° 0,2 mm 3 m/s 754 mmHg 73%
    12:00 +24°C° 0,2 mm 3 m/s 753 mmHg 65%
    13:00 +25°C° 0,2 mm 4 m/s 753 mmHg 57%
    14:00 +26°C° 0,2 mm 4 m/s 753 mmHg 49%
    15:00 +25°C° 0 mm 3 m/s 753 mmHg 53%
    16:00 +25°C° 0 mm 3 m/s 753 mmHg 56%
    17:00 +24°C° 0 mm 2 m/s 753 mmHg 60%
    18:00 +23°C° 0,1 mm 2 m/s 753 mmHg 68%
    19:00 +20°C° 0,1 mm 2 m/s 753 mmHg 76%
    20:00 +19°C° 0,1 mm 2 m/s 753 mmHg 84%
    21:00 +18°C° 0 mm 2 m/s 753 mmHg 87%
    22:00 +18°C° 0 mm 2 m/s 753 mmHg 90%
    23:00 +18°C° 0 mm 2 m/s 753 mmHg 93%

    20 August, Luni

    Timp Temperatura Precipitaţii Vânt Presiune Umiditate
    00:00 +17°C° 0,1 mm 2 m/s 753 mmHg 94%
    01:00 +17°C° 0,1 mm 2 m/s 753 mmHg 95%
    02:00 +17°C° 0,1 mm 2 m/s 753 mmHg 97%
    03:00 +16°C° 0,1 mm 2 m/s 753 mmHg 97%
    04:00 +16°C° 0,1 mm 2 m/s 753 mmHg 97%
    05:00 +16°C° 0,1 mm 2 m/s 753 mmHg 98%
    06:00 +17°C° 0 mm 2 m/s 753 mmHg 95%
    07:00 +18°C° 0 mm 3 m/s 753 mmHg 91%
    08:00 +18°C° 0 mm 3 m/s 753 mmHg 88%
    09:00 +19°C° 0,1 mm 3 m/s 753 mmHg 84%
    10:00 +20°C° 0,1 mm 3 m/s 753 mmHg 80%
    11:00 +21°C° 0,1 mm 3 m/s 753 mmHg 75%
    12:00 +21°C° 0,5 mm 3 m/s 753 mmHg 79%
    13:00 +21°C° 0,5 mm 3 m/s 753 mmHg 82%
    14:00 +21°C° 0,5 mm 3 m/s 752 mmHg 85%
    15:00 +21°C° 0,4 mm 3 m/s 752 mmHg 86%
    16:00 +20°C° 0,4 mm 3 m/s 752 mmHg 87%
    17:00 +20°C° 0,4 mm 2 m/s 752 mmHg 88%
    18:00 +20°C° 0,1 mm 2 m/s 752 mmHg 90%
    19:00 +20°C° 0,1 mm 1 m/s 752 mmHg 93%
    20:00 +19°C° 0,1 mm 1 m/s 752 mmHg 96%
    21:00 +18°C° 0,1 mm 1 m/s 752 mmHg 96%
    22:00 +18°C° 0,1 mm 1 m/s 752 mmHg 96%
    23:00 +18°C° 0,1 mm 1 m/s 752 mmHg 97%

    21 August, Marţi

    Timp Temperatura Precipitaţii Vânt Presiune Umiditate
    00:00 +18°C° 0,4 mm 1 m/s 752 mmHg 97%
    01:00 +18°C° 0,4 mm 1 m/s 752 mmHg 98%
    02:00 +18°C° 0,4 mm 1 m/s 752 mmHg 98%
    03:00 +16°C° 0,3 mm 1 m/s 752 mmHg 98%
    04:00 +16°C° 0,3 mm 1 m/s 752 mmHg 98%
    05:00 +16°C° 0,3 mm 1 m/s 752 mmHg 98%
    06:00 +16°C° 0 mm 1 m/s 752 mmHg 95%
    07:00 +18°C° 0 mm 1 m/s 752 mmHg 93%
    08:00 +18°C° 0 mm 1 m/s 752 mmHg 90%
    09:00 +20°C° 0 mm 1 m/s 752 mmHg 82%
    10:00 +21°C° 0 mm 1 m/s 752 mmHg 73%
    11:00 +22°C° 0 mm 1 m/s 752 mmHg 65%
    12:00 +23°C° 0 mm 1 m/s 751 mmHg 62%
    13:00 +23°C° 0 mm 1 m/s 751 mmHg 60%
    14:00 +24°C° 0 mm 2 m/s 751 mmHg 58%
    15:00 +23°C° 0,1 mm 1 m/s 750 mmHg 61%
    16:00 +23°C° 0,1 mm 1 m/s 750 mmHg 65%
    17:00 +22°C° 0,1 mm 1 m/s 750 mmHg 68%
    18:00 +21°C° 0,2 mm 1 m/s 750 mmHg 74%
    19:00 +19°C° 0,2 mm 1 m/s 750 mmHg 80%
    20:00 +18°C° 0,2 mm 1 m/s 750 mmHg 86%
    21:00 +18°C° 0,1 mm 1 m/s 750 mmHg 89%
    22:00 +16°C° 0,1 mm 1 m/s 750 mmHg 91%
    23:00 +15°C° 0,1 mm 0 m/s 750 mmHg 93%

    22 August, Miercuri

    Timp Temperatura Precipitaţii Vânt Presiune Umiditate
    00:00 +14°C° 0,1 mm 0 m/s 750 mmHg 94%
    01:00 +14°C° 0,1 mm 0 m/s 750 mmHg 94%
    02:00 +13°C° 0,1 mm 0 m/s 750 mmHg 95%
    03:00 +13°C° 0 mm 0 m/s 750 mmHg 95%
    04:00 +13°C° 0 mm 0 m/s 751 mmHg 95%
    05:00 +14°C° 0 mm 1 m/s 751 mmHg 95%
    06:00 +15°C° 0 mm 1 m/s 751 mmHg 92%
    07:00 +16°C° 0 mm 1 m/s 751 mmHg 89%
    08:00 +18°C° 0 mm 1 m/s 752 mmHg 87%
    09:00 +18°C° 0,1 mm 2 m/s 752 mmHg 80%
    10:00 +20°C° 0,1 mm 2 m/s 752 mmHg 73%
    11:00 +21°C° 0,1 mm 2 m/s 752 mmHg 66%
    12:00 +22°C° 0 mm 3 m/s 751 mmHg 62%
    13:00 +22°C° 0 mm 3 m/s 751 mmHg 59%
    14:00 +24°C° 0 mm 3 m/s 751 mmHg 55%
    15:00 +24°C° 0 mm 3 m/s 751 mmHg 57%
    16:00 +24°C° 0 mm 3 m/s 751 mmHg 59%
    17:00 +24°C° 0 mm 3 m/s 750 mmHg 61%
    18:00 +21°C° 0,1 mm 3 m/s 750 mmHg 67%
    19:00 +20°C° 0,1 mm 3 m/s 750 mmHg 73%
    20:00 +18°C° 0,1 mm 3 m/s 750 mmHg 80%
    21:00 +18°C° 0,2 mm 3 m/s 750 mmHg 83%
    22:00 +18°C° 0,2 mm 3 m/s 750 mmHg 86%
    23:00 +18°C° 0,2 mm 4 m/s 749 mmHg 89%
    Arată mai mult